This is the latest recevied weather packets stored in our database for station/object N2MLB-WX. If no packets are shown the sender has not sent any weather packets the latest 10 day(s).
| Time | Temp. | Humidity | Pressure | Rain* | Wind** | Luminosity | Snow |
|---|---|---|---|---|---|---|---|
| 1777644140 | 7.78° C | 69% | 1009 hPa | 0 mm | - | 45 W/m² | - |
| 1777643840 | 7.78° C | 71% | 1009 hPa | 0 mm | - | 42 W/m² | - |
| 1777643539 | 7.78° C | 70% | 1009 hPa | 0 mm | - | 43 W/m² | - |
| 1777643241 | 6.67° C | 69% | 1009 hPa | 0 mm | - | 37 W/m² | - |
| 1777642939 | 6.67° C | 71% | 1009 hPa | 0 mm | - | 31 W/m² | - |
| 1777642640 | 6.67° C | 74% | 1009 hPa | 0 mm | - | 22 W/m² | - |
| 1777642339 | 6.67° C | 75% | 1009 hPa | 0 mm | - | 19 W/m² | - |
| 1777642039 | 6.67° C | 73% | 1009 hPa | 0 mm | - | 19 W/m² | - |
| 1777641739 | 6.67° C | 72% | 1009 hPa | 0 mm | - | 21 W/m² | - |
| 1777641440 | 6.67° C | 74% | 1009 hPa | 0 mm | - | 26 W/m² | - |
| 1777641140 | 7.22° C | 72% | 1009 hPa | 0 mm | - | 31 W/m² | - |
| 1777640841 | 6.67° C | 72% | 1009 hPa | 0 mm | - | 33 W/m² | - |
| 1777640540 | 6.11° C | 72% | 1009 hPa | 0 mm | - | 26 W/m² | - |
| 1777640239 | 6.67° C | 73% | 1009 hPa | 0 mm | - | 26 W/m² | - |
| 1777639940 | 6.67° C | 74% | 1009 hPa | 0 mm | - | 33 W/m² | - |
| 1777639639 | 6.11° C | 74% | 1009 hPa | 0 mm | - | 42 W/m² | - |
| 1777639340 | 6.11° C | 75% | 1009 hPa | 0 mm | - | 23 W/m² | - |
| 1777639042 | 6.11° C | 75% | 1009 hPa | 0 mm | - | 24 W/m² | - |
| 1777638739 | 6.11° C | 76% | 1009 hPa | 0 mm | - | 27 W/m² | - |
| 1777638440 | 6.67° C | 75% | 1009 hPa | 0 mm | - | 35 W/m² | - |
| 1777638141 | 6.67° C | 78% | 1009 hPa | 0 mm | - | 28 W/m² | - |
| 1777637840 | 6.11° C | 77% | 1009 hPa | 0 mm | - | 27 W/m² | - |
| 1777637540 | 6.11° C | 75% | 1009 hPa | 0 mm | - | 24 W/m² | - |
| 1777637240 | 6.11° C | 78% | 1009 hPa | 0 mm | - | 27 W/m² | - |
| 1777636939 | 6.67° C | 75% | 1009 hPa | 0 mm | - | 28 W/m² | - |
* Rain latest hour (hover to see other rain measurements)
** Current wind speed in m/s (hover to see current wind gust speed)